CDT,Max TemperatureF,Mean TemperatureF,Min TemperatureF,Max Dew PointF,MeanDew PointF,Min DewpointF,Max Humidity, Mean Humidity, Min Humidity, Max Sea Level PressureIn, Mean Sea Level PressureIn, Min Sea Level PressureIn, Max VisibilityMiles, Mean VisibilityMiles, Min VisibilityMiles, Max Wind SpeedMPH, Mean Wind SpeedMPH, Max Gust SpeedMPH,PrecipitationIn, CloudCover, Events, WindDirDegrees
2013-7-1,82,68,53,64,54,48,94,68,34,30.19,30.15,30.11,10,9,2,9,3,31,0.17,3,Rain,63
2013-7-2,78,65,55,56,50,45,84,58,34,30.17,30.13,30.09,10,10,10,12,5,21,0.00,1,,86
2013-7-3,73,60,48,61,55,45,97,77,47,30.13,30.09,30.03,10,9,2,6,1,,0.06,5,Rain,147
2013-7-4,82,70,57,61,58,57,97,68,42,30.07,30.03,29.99,10,9,5,10,5,16,0.00,3,,186
2013-7-5,87,74,61,62,59,55,90,62,35,30.04,30.00,29.96,10,10,10,16,6,25,0.00,0,,186
2013-7-6,89,76,64,64,62,60,87,63,40,30.01,29.97,29.92,10,10,8,12,7,,0.00,0,,187
2013-7-7,90,79,68,70,66,62,87,69,39,29.95,29.92,29.88,10,10,8,12,5,,0.00,1,,195
2013-7-8,87,78,69,72,70,67,100,82,55,29.99,29.93,29.86,10,8,1,20,8,28,1.13,5,Rain,51
2013-7-9,84,75,68,74,70,66,97,84,62,29.99,29.90,29.78,10,7,1,14,5,31,0.35,3,Rain,201
2013-7-10,78,68,57,68,58,53,93,67,45,30.05,29.95,29.83,10,10,7,17,8,26,0.00,1,,318
2013-7-11,82,68,55,61,56,52,100,74,34,30.14,30.09,30.06,10,7,1,6,1,,0.00,2,,154
2013-7-12,84,72,59,61,57,53,90,61,36,30.16,30.11,30.06,10,10,10,12,5,16,0.00,0,,183
2013-7-13,82,72,62,63,58,54,90,64,44,30.17,30.13,30.07,10,10,10,13,5,23,0.00,0,,174
2013-7-14,89,74,60,65,61,57,90,65,41,30.24,30.21,30.18,10,10,10,9,3,,0.00,1,,172
2013-7-15,88,76,64,72,67,64,100,77,53,30.29,30.27,30.25,10,8,2,8,2,,0.00,2,,136
2013-7-16,91,82,73,74,72,69,96,74,49,30.29,30.25,30.21,10,9,5,13,4,18,0.00,1,Rain-Thunderstorm,219
2013-7-17,95,84,72,73,70,66,97,68,40,30.28,30.23,30.16,10,10,9,9,5,17,0.00,1,,253
2013-7-18,96,84,73,71,69,66,90,62,40,30.16,30.00,29.83,10,10,10,20,8,29,0.00,1,Rain,223
2013-7-19,93,81,66,70,64,58,82,58,36,29.86,29.77,29.73,10,10,10,16,10,26,0.01,1,,260
2013-7-20,84,71,60,61,57,53,93,63,39,29.98,29.91,29.85,10,10,10,9,3,,0.00,2,,12
2013-7-21,71,64,59,63,59,54,100,86,63,30.01,29.96,29.92,10,8,1,9,5,,0.26,6,Rain-Thunderstorm,111
2013-7-22,86,72,59,69,63,59,100,83,55,29.92,29.80,29.65,10,6,0,15,5,22,0.00,5,Fog,173
2013-7-23,73,66,57,61,51,46,81,59,41,30.03,29.91,29.76,10,10,10,17,10,24,0.00,3,,356
2013-7-24,75,60,46,53,48,45,97,67,34,30.11,30.07,30.03,10,10,2,7,1,,0.00,2,,246
2013-7-25,82,68,54,64,59,52,97,75,47,30.05,30.00,29.96,10,10,10,16,6,23,0.02,3,Rain-Thunderstorm,209
2013-7-26,78,66,55,66,58,47,96,77,36,29.98,29.92,29.86,10,10,5,18,6,30,0.05,6,Rain,259
2013-7-27,59,52,46,50,46,42,96,78,62,29.99,29.93,29.88,10,10,5,13,9,18,0.03,7,Rain,302
2013-7-28,69,58,48,52,49,46,92,77,52,30.05,29.94,29.87,10,10,10,16,7,26,0.00,8,,306
2013-7-29,77,63,51,55,51,47,89,66,43,30.17,30.12,30.04,10,10,10,9,6,,0.00,1,,1
2013-7-30,80,68,57,59,57,54,93,71,43,30.19,30.14,30.09,10,10,10,10,4,,0.00,6,,184
2013-7-31,80,68,57,64,61,55,100,80,52,30.08,30.03,29.96,10,8,2,24,4,37,0.15,5,Rain-Thunderstorm,266